Home > Time Zones > World Clock > Weather > Belgium > Spa > Past weeks

Flag for Belgium Weather past 2 weeks in Spa, Belgium

Now
60 °F

Passing clouds.


Feels Like: 60 °F
Forecast: 48 / 64 °F
Wind: 5 mph from Southwest

Location: Spa / La Sauveniere

Current Time: Jun 3, 2015 at 1:41:05 AM

Latest Report: Jun 3, 2015 at 1:00 AM


Visibility: 19 mi

Pressure: 30.02 "Hg

Humidity: 80%

Dew point: 54 °F

Location of SpaLocation

Historic Weather in Spa — Graph

°F

Spa temperature yesterday

Maximum temperature yesterday: 68 °F (at 6:00 PM)
Minimum temperature yesterday: 47 °F (at 12:00 AM)
Average temperature yesterday: 56 °F

Past Weeks' High & Low Weather Summary

 TemperatureHumidityPressure
High68 °F (Jun 2, 6:00 PM)97% (May 23, 8:00 PM)30.39 "Hg (May 23, 8:00 PM)
Low40 °F (May 20, 5:00 AM)40% (May 28, 1:00 PM)29.75 "Hg (May 19, 2:00 AM)
Average51 °F73%30.06 "Hg
* Reported Midnight between May 18 and May 19 — Midnight between Jun 2 and Jun 3, Spa, Weather by CustomWeather, © 2015

Note: Actual official high and low records may vary slightly from our data, if they occured in-between our weather recording intervals... More about our weather records

Advertising

Spa weather history for previous 24 hours

 ConditionsComfort  
Time TempWeatherWind HumidityBarometerVisibility
12:00 AM
Wed, Jun 3
62 °FClear.3 mph73%30.00 "Hg25 mi
10:00 PM
Tue, Jun 2
64 °FOvercast.5 mph67%29.98 "Hg22 mi
9:00 PM65 °FOvercast.6 mph64%29.97 "Hg25 mi
8:00 PM65 °FPartly sunny.8 mph64%29.95 "Hg25 mi
7:00 PM65 °FOvercast.8 mph62%29.94 "Hg22 mi
6:00 PM68 °FPassing clouds.8 mph57%29.92 "Hg22 mi
5:00 PM65 °FOvercast.8 mph61%29.93 "Hg22 mi
4:00 PM64 °FOvercast.9 mph62%29.91 "Hg22 mi
3:00 PM63 °FOvercast.7 mph65%29.92 "Hg22 mi
2:00 PM60 °FOvercast.7 mph70%29.93 "Hg19 mi
1:00 PM57 °FOvercast.8 mph74%29.93 "Hg18 mi
12:00 PM54 °FOvercast.8 mph77%29.94 "Hg19 mi
11:00 AM55 °FOvercast.8 mph73%29.93 "Hg19 mi
10:00 AM53 °FPartly sunny.8 mph71%29.92 "Hg19 mi
9:00 AM52 °FPartly sunny.8 mph75%29.91 "Hg19 mi
8:00 AM49 °FOvercast.7 mph85%29.92 "Hg19 mi
7:00 AM49 °FDrizzle. Overcast.6 mph91%29.91 "Hg12 mi
6:00 AM49 °FLight rain. Sunny.6 mph90%29.92 "Hg11 mi
4:00 AM49 °FClear.6 mph82%29.94 "Hg17 mi
3:00 AM48 °FClear.5 mph80%29.95 "Hg19 mi
2:00 AM47 °FClear.6 mph79%29.98 "Hg19 mi
1:00 AM47 °FClear.5 mph77%29.99 "Hg22 mi
Weather by CustomWeather, © 2015

See weather overviewHow to use our weather pages